Regional Weather Roundup
Issued by NWS Charleston, SC

Current Version | Previous Version | Graphics & Text | Print | Product List | Glossary On
Versions: 1 2 3 4 5 6 7 8 9 10 11 12 13 14 15 16 17 18 19 20 21 22 23 24 25 26 27 28 29 30 31 32 33 34 35 36 37 38 39 40 41 42 43 44 45 46 47 48 49 50
419 ASUS42 KCHS 091812 RWRCHS REGIONAL WEATHER ROUNDUP NATIONAL WEATHER SERVICE CHARLESTON SC 100 PM EST TUE FEB 09 2016 NOTE: "FAIR" INDICATES FEW OR NO CLOUDS BELOW 12,000 FEET WITH NO SIGNIFICANT WEATHER AND/OR OBSTRUCTIONS TO VISIBILITY. NOT ALL STATIONS ARE QUALITY CONTROLLED BY THE NATIONAL WEATHER SERVICE. USE DATA WITH CAUTION...ESPECIALLY DEWPOINT OBSERVATIONS. NOTICE: OBSERVATIONS FOR THE SAVANNAH-HILTON HEAD INTERNATIONAL AIRPORT /KSAV/ HAVE BEEN TEMPORARILY REMOVED DUE TO AN ERRONEOUS TEMPERATURE SENSOR. THE OBSERVATION WILL BE REINTRODUCED ONCE REPAIRS ARE COMPLETE. SCZ027-030-031-034>040-042>050-091900- ...SOUTHEAST SOUTH CAROLINA... CITY SKY/WX TMP DP RH WIND PRES REMARKS N CHARLESTON PTSUNNY 46 24 42 W17G25 29.78F 6HR MIN TEMP: 36; 6HR MAX TEMP: 48; WATERFRONT PRK N/A 45 28 51 W9 29.65F MOUNT PLEASANT MOCLDY 45 28 53 SW15G28 29.78F JOHNS ISLAND CLOUDY 46 27 46 W13G22 29.79F PINOPOLIS N/A 43 28 56 W16 29.70F MONCKS CORNER CLOUDY 41 21 45 W9G16 29.77F SUMMERVILLE CLOUDY 43 28 56 W14G23 29.79F BEAUFORT MCAS CLOUDY 45 25 45 W14G24 29.82F 6HR MIN TEMP: 36; 6HR MAX TEMP: 48; BEAUFORT ARPT CLOUDY 46 27 46 W21G29 29.82F HAZE HILTON HEAD IS CLOUDY 45 27 49 W13G29 29.84F WALTERBORO CLOUDY 45 28 53 W18G26 29.80F ALLENDALE CLOUDY 43 25 49 W6G17 29.81F ...SOUTHERN MIDLANDS AND PEE DEE... CITY SKY/WX TMP DP RH WIND PRES REMARKS GEORGETOWN NOT AVBL KINGSTREE NOT AVBL ORANGEBURG CLOUDY 43 23 45 W17G25 29.78F 6HR MIN TEMP: 35; 6HR MAX TEMP: 44; BARNWELL CLOUDY 43 28 56 W12G18 29.81F AIKEN CLOUDY 37 23 56 W15G25 29.82F WCI 28 MANNING CLOUDY 43 23 45 W10G25 29.77F COLUMBIA CLOUDY 40 22 48 W20G26 29.78F WCI 30 6HR MIN TEMP: 35; 6HR MAX TEMP: 42; SUMTER CLOUDY 40 23 50 W14G28 29.74F WCI 33 6HR MIN TEMP: 34; 6HR MAX TEMP: 43; FLORENCE PTSUNNY 43 24 47 W20G26 29.72F 6HR MIN TEMP: 35; 6HR MAX TEMP: 44; MYRTLE BEACH PTSUNNY 46 23 39 W17G29 29.76F N MYRTLE BEACH MOSUNNY 47 25 42 W15G23 29.71F 6HR MIN TEMP: 38; 6HR MAX TEMP: 47; $$ GAZ063-065-086>088-099>101-113>116-118-119-134>141-150-091900- ...SOUTHEAST GEORGIA... CITY SKY/WX TMP DP RH WIND PRES REMARKS SAVANNAH ARPT CLOUDY 44 23 43 W29G37 29.85F 6HR MIN TEMP: 35; 6HR MAX TEMP: 48; HUNTER AAF CLOUDY 45 26 47 W17G26 29.83F 6HR MIN TEMP: 35; 6HR MAX TEMP: 47; 6HR PCP: 0.01; FORT STEWART CLOUDY 45 24 43 W18G29 29.85F 6HR MIN TEMP: 35; 6HR MAX TEMP: 45; STATESBORO CLOUDY 46 19 33 W10G24 29.85F SYLVANIA CLOUDY 44 27 50 W14G25 29.84F CLAXTON CLOUDY 43 29 56 SW16 29.88S ...CSRA...CENTRAL AND FAR SOUTHEAST GEORGIA... CITY SKY/WX TMP DP RH WIND PRES REMARKS THOMSON CLOUDY 39 27 61 W14G20 29.87F WCI 31 AUGUSTA-BUSH CLOUDY 40 24 53 W16 29.82F WCI 31 6HR MIN TEMP: 38; 6HR MAX TEMP: 42; AUGUSTA-DANIEL CLOUDY 39 23 52 W10G20 29.82F WCI 32 SWAINSBORO CLOUDY 43 21 42 W14G24 29.86F VIDALIA CLOUDY 43 25 49 W13G24 29.88F EASTMAN CLOUDY 45 22 39 W13G21 29.91F HAZLEHURST CLOUDY 49 22 35 W7G23 29.88F ALMA MOSUNNY 47 22 37 W14G25 29.90F 6HR MIN TEMP: 36; 6HR MAX TEMP: 47; WAYCROSS PTSUNNY 52 27 38 W16G25 29.90F JESUP MOCLDY 50 28 43 NW24G31 29.88F BAXLEY PTSUNNY 46 23 39 W14G24 29.89F BRUNSWICK MOSUNNY 50 27 40 W18G30 29.90F SAINT SIMONS MOSUNNY 49 24 37 W16G35 29.88F 6HR MIN TEMP: 40; 6HR MAX TEMP: 49; $$ SCZ027-028-034-036>038-045-046-048>050-GAZ119-141-091900- ...LAKE AND SUPPLEMENTAL COASTAL OBSERVATIONS... STATION/POSITION TIME TEMP WIND PRES WAVE SWELL AIR SEA DIR/SP/G HT/PER HT/PER/DIR (UTC) (F) (DEG/KT/KT) (MB) (FT/S) (FT/S/D) WINYAH BAY NOT AVBL LAKE MURRAY 1700 39 270/ 22/ 26 1008.1S ACE BASIN NERRS 1645 44 260/ 8 1010.0 FORT PULASKI 1700 44 52 260/ 16/ 24 1011.4F SAPELO ISLAND 1700 45 260/ 22 1012.0F $$ ANZ835-935-AMZ111-154-330-350-352-354-370-450-454-472-091900- ...C-MAN AND BUOY OBSERVATIONS... STATION/POSITION TIME TEMP WIND PRES WAVE SWELL AIR SEA DIR/SP/G HT/PER HT/PER/DIR (UTC) (F) (DEG/KT/KT) (MB) (FT/S) (FT/S/D) BUOY 41004 1750 47 65 260/ 25/ 29 1008.1F 8/ 7 2/15 BUOY 41008 1750 46 55 270/ 25/ 31 1011.4F 6/ 5 FOLLY BEACH CMAN 1800 44 240/ 12/ 17 1008.6F CAPERS NEARSHORE 1708 45 270/ 21/ 27 1008.4F FRIPP NEARSHORE 1700 46 280/ 23/ 25 1010.1F STATION/POSITION TIME TEMP WIND PRES WAVE SWELL AIR SEA DIR/SP/G HT/PER HT/PER/DIR (UTC) (F) (DEG/KT/KT) (MB) (FT/S) (FT/S/D) 5E ST. MARYS GA 1721 56 N/A 4/ 4 2/ 90/18 FRYING PAN BUOY 1700 45 56 260/ 25/ 33 1007.5F BUOY 41025 1750 47 73 280/ 19/ 25 1003.4F 13/15 11/ 80/15 CAPE LOOKOUT NC NOT AVBL BUOY 41002 1750 55 69 280/ 25/ 33 N/A 17/11 10/270/11 BUOY 41010 1720 57 72 1014.8F ST AUGUSTINE FL 1800 53 57 260/ 21/ 28 1013.8F $$

USA.gov is the U.S. government's official web portal to all federal, state and local government web resources and services.